Overview Statistics Trail Chart Weather Telemetry Raw packets
 

This is the latest recevied weather packets stored in our database for station/object F4NFR-13. If no packets are shown the sender has not sent any weather packets the latest 10 day(s).

<< 57 58 59 60 61 62 >>
Time Temp. Humidity Pressure Rain* Wind** Luminosity Snow
1777737611 18.89° C 73% 1015.4 hPa 0 mm - 10 W/m² -
1777737005 20° C 70% 1015 hPa 0 mm - 15 W/m² -
1777736703 20° C 70% 1015.4 hPa 0 mm - 24 W/m² -
1777736401 20° C 68% 1015.4 hPa 0 mm - 56 W/m² -
1777736098 20° C 68% 1015.4 hPa 0 mm - 114 W/m² -
1777735494 21.11° C 65% 1015.4 hPa 0 mm - 57 W/m² -
1777735191 21.11° C 65% 1015.4 hPa 0 mm - 76 W/m² -
1777734889 21.11° C 64% 1015.7 hPa 0 mm - 116 W/m² -
1777734586 21.11° C 62% 1016.1 hPa 0 mm - 210 W/m² -
1777734283 21.11° C 62% 1016.1 hPa 0 mm - 190 W/m² -
1777733981 21.11° C 62% 1016.1 hPa 0 mm - 176 W/m² -
1777733678 21.11° C 64% 1016.1 hPa 0 mm - 243 W/m² -
1777733376 21.11° C 63% 1016.1 hPa 0 mm - 188 W/m² -
1777733074 21.11° C 64% 1016.4 hPa 0 mm - 206 W/m² -
1777732469 22.22° C 61% 1016.4 hPa 0 mm - 0 W/m² -
1777732166 22.22° C 59% 1016.4 hPa 0 mm - 0 W/m² -
1777731864 22.22° C 59% 1016.4 hPa 0 mm - 2 W/m² -
1777731562 21.11° C 61% 1016.7 hPa 0 mm - 0 W/m² -
1777731259 21.11° C 62% 1016.7 hPa 0 mm - 0 W/m² -
1777730957 21.11° C 66% 1016.7 hPa 0 mm - 0 W/m² -
1777730655 21.11° C 63% 1016.7 hPa 0 mm - 295 W/m² -
1777730353 22.22° C 62% 1016.7 hPa 0 mm - 0 W/m² -
1777730050 22.22° C 60% 1016.7 hPa 0 mm - 45 W/m² -
1777729446 21.11° C 63% 1017.1 hPa 0 mm - 2 W/m² -
1777729144 21.11° C 63% 1017.1 hPa 0 mm - 0 W/m² -

* Rain latest hour (hover to see other rain measurements)
** Current wind speed in m/s (hover to see current wind gust speed)